{"data":{"norad_id":69837,"intl_designator":"2026-154U","name":"STARLINK-37587","alt_names":[],"object_type":"PAYLOAD","status":"ACTIVE","operator":null,"country":"US","launch_date":"2026-07-05","launch_site_code":"AFETR","launch_vehicle":null,"mission":null,"orbit_class":"UNKNOWN","rcs_meters":null,"size_class":null,"mass_kg":null,"dimensions":null,"purposes":["comms"],"wikipedia_slug":null,"has_3d_model":false,"image_url":null,"decayed_at":null,"tle_current":{"epoch":"2026-09-20T04:29:22.548192Z","epoch_age_seconds":44824,"freshness":"FRESH","line1":"1 69837U 26154U   26263.18706653 -.00000428  00000+0 -15398-5 0  9992","line2":"2 69837  53.1563 332.9313 0000649  78.1175 281.9900 15.34390682 13194","mean_motion":15.34390682,"eccentricity":6.49e-5,"inclination_deg":53.1563,"raan_deg":332.9313,"arg_perigee_deg":78.1175,"mean_anomaly_deg":281.99,"bstar":-1.5398e-6,"rev_number":1319,"period_min":93.84832799708,"perigee_km":462.28696307793,"apogee_km":463.17490773595,"semimajor_km":6840.8679354069,"source":"CELESTRAK","updated_at":"2026-09-20T09:00:44.296310Z"}}}